Flag for Chile Weather past 2 weeks in Easter Island, Chile

Now
68 °F

Passing clouds.


Feels Like: 68 °F
Forecast: 64 / 69 °F
Wind: 17 mph from West

Location: Isla De Pascua

Current Time: Jul 31, 2014 at 9:44:17 AM

Latest Report: Jul 31, 2014 at 9:00 AM


Visibility: N/A

Pressure: 29.95 "Hg

Humidity: 83%

Dew point: 63 °F

Location of Easter IslandLocation

Historic Weather in Easter Island — Graph

°F

Easter Island temperature yesterday

Maximum temperature yesterday: 73 °F (at 2:00 PM)
Minimum temperature yesterday: 66 °F (at 9:00 PM)
Average temperature yesterday: 69 °F

Past Weeks' High & Low Weather Summary

 TemperatureHumidityPressure
High73 °F (Jul 30, 2:00 PM)94% (Jul 17, 7:00 AM)30.33 "Hg (Jul 17, 7:00 AM)
Low55 °F (Jul 19, 9:00 AM)53% (Jul 18, 1:00 PM)29.92 "Hg (Jul 31, 6:00 AM)
Average67 °F80%30.12 "Hg
* Reported Jul 16 8:00 AM — Jul 31 8:00 AM, Easter Island, Weather by CustomWeather, © 2014

Note: Actual official high and low records may vary slightly from our data, if they occured in-between our weather recording intervals... More about our weather records

Advertising

Easter Island weather history for previous 24 hours

 ConditionsComfort  
Time TempWeatherWind HumidityBarometerVisibility
8:00 AM
Jul 31
68 °FPassing clouds.18 mph83%29.92 "HgN/A
7:00 AM68 °FSprinkles. Passing clouds.21 mph83%29.92 "Hg4 mi
6:00 AM66 °FPassing clouds.17 mph94%29.92 "HgN/A
4:00 AM66 °FPassing clouds.17 mph88%29.95 "HgN/A
3:00 AM66 °FSprinkles. Passing clouds.16 mph94%29.95 "Hg4 mi
2:00 AM68 °FSprinkles. Passing clouds.17 mph83%29.98 "Hg4 mi
1:00 AM68 °FPartly cloudy.15 mph88%29.98 "HgN/A
12:00 AM68 °FSprinkles. Partly cloudy.14 mph88%30.01 "HgN/A
11:00 PM
Jul 30
66 °FPassing clouds.14 mph88%29.98 "HgN/A
10:00 PM68 °FPartly cloudy.16 mph83%30.01 "HgN/A
9:00 PM66 °FPassing clouds.15 mph88%29.98 "HgN/A
8:00 PM68 °FBroken clouds.15 mph88%29.98 "HgN/A
7:00 PM68 °FBroken clouds.15 mph88%29.98 "HgN/A
6:00 PM70 °FPassing clouds.14 mph83%29.95 "HgN/A
5:00 PM72 °FScattered clouds.14 mph78%29.95 "HgN/A
4:00 PM72 °FScattered clouds.13 mph78%29.95 "HgN/A
3:00 PM73 °FScattered clouds.14 mph78%29.98 "HgN/A
2:00 PM73 °FPassing clouds.13 mph74%30.01 "HgN/A
1:00 PM72 °FScattered clouds.13 mph78%30.01 "HgN/A
12:00 PM72 °FPartly sunny.14 mph78%30.04 "HgN/A
11:00 AM70 °FBroken clouds.13 mph83%30.04 "HgN/A
10:00 AM70 °FPartly sunny.10 mph83%30.01 "HgN/A
9:00 AM68 °FPartly cloudy.12 mph88%30.01 "HgN/A
Weather by CustomWeather, © 2014

See weather overviewHow to use our weather pages